Regional Weather Roundup
Issued by NWS

Home | Current Version | Previous Version | Graphics & Text | Print | Product List | Glossary On
Versions: 1 2 3 4 5 6 7 8 9 10 11 12 13 14 15 16 17 18 19 20 21 22 23 24 25 26 27
000
ASUS43 KDMX 161307
RWRIA

WEATHER ROUNDUP FOR IOWA
NATIONAL WEATHER SERVICE DES MOINES IA
800 AM CDT WED APR 16 2014

NOTE: "FAIR" INDICATES FEW OR NO CLOUDS BELOW 12,000 FEET WITH NO
SIGNIFICANT WEATHER AND/OR OBSTRUCTIONS TO VISIBILITY.

* - THESE STATIONS ARE NOT NWS STATIONS...THUS NOT UNDER NWS
QUALITY CONTROL.  THEY ALSO DO NOT REPORT WEATHER SUCH
AS PRECIPITATION OR FOG.

IAZ001>003-012>014-020>022-031>034-043>046-161400-
   NORTHWEST IOWA

CITY           SKY/WX    TMP DP  RH WIND       PRES   REMARKS
CARROLL *      SUNNY     45  28  53 S20G30    29.79R
CHEROKEE *     CLOUDY    45  30  57 S18G24    29.72S
DENISON *      SUNNY     45  28  53 S22G30    29.75R
LE MARS *      PTSUNNY   46  28  49 S17G26    29.67R
ORANGE CITY *  MOSUNNY   45  27  49 S20G26    29.67R
SHELDON *      PTSUNNY   43  30  61 S18G30    29.66S
SIOUX CITY     CLOUDY    48  28  46 S22G29    29.67F
SPENCER        CLOUDY    41  31  67 SE17      29.73F
STORM LAKE *   SUNNY     43  30  61 S16       29.76R
$$

IAZ055>058-069>071-079>083-090>094-161400-
   SOUTHWEST IOWA

CITY           SKY/WX    TMP DP  RH WIND       PRES   REMARKS
ATLANTIC *     SUNNY     45  28  53 S21G28    29.80S
AUDUBON *      SUNNY     45  25  45 S18G31    29.80S
CLARINDA *     SUNNY     46  28  49 S16G25    29.87R
COUNCIL BLFS * SUNNY     46  30  53 S20G29    29.76R
CRESTON *      SUNNY     43  28  56 S22G35    29.87R
HARLAN  *      SUNNY     45  30  57 S22G32    29.81R
LAMONI           N/A     43  26  51 S18G26    29.93R
RED OAK *      SUNNY     46  30  53 S22G30    29.82S
SHENANDOAH *   SUNNY     46  30  53 S21G33    29.83S
$$

IAZ047>049-059>061-072>074-084-161400-
   CENTRAL IOWA

CITY           SKY/WX    TMP DP  RH WIND       PRES   REMARKS
AMES           CLOUDY    39  28  64 SE13      29.90R WCI  31
ANKENY *       SUNNY     45  27  49 S15G24    29.90S
CHARITON *     SUNNY     43  27  52 S21G28    29.94S
DES MOINES     CLOUDY    45  26  47 S17G26    29.91S
GRINNELL*      PTSUNNY   39  27  60 SE23      29.97F WCI  29
KNOXVILLE *    SUNNY     45  25  45 S22       29.93F
MARSHALLTOWN   CLOUDY    37  26  64 SE22G31   29.93F WCI  26
NEWTON *       SUNNY     37  27  65 SE18      29.96S WCI  27
PELLA *        MOSUNNY   43  27  52 SE13G22   29.97F
PERRY *          N/A     45  28  53 S21G28    29.85R
$$

IAZ004>006-015-016-023>025-035-036-161400-
   NORTH CENTRAL IOWA

CITY           SKY/WX    TMP DP  RH WIND       PRES   REMARKS
ALGONA *       MOSUNNY   39  28  65 SE26G35   29.80F WCI  28
CLARION *      MIX PCPN  37  28  70 SE24G36   29.84S WCI  26
ESTHERVILLE    CLOUDY    37  30  75 S20G29    29.75S WCI  27
FORT DODGE *   CLOUDY    41  27  56 S17G25    29.84R
MASON CITY     CLOUDY    36  26  67 SE21G28   29.91R WCI  25
FOREST CITY *  CLOUDY    37  28  70 SE17      29.87R WCI  28
IOWA FALLS *     N/A     37  28  70 SE21      29.91S WCI  27
$$

IAZ007>011-017>019-026>030-037>042-050>054-066-161400-
   NORTHEAST IOWA

CITY           SKY/WX    TMP DP  RH WIND       PRES   REMARKS
CEDAR RAPIDS   PTSUNNY   37  23  56 SE20G29   30.05S WCI  27
CHARLES CITY * SUNNY     36  23  60 SE25G33   29.95S WCI  23
CLINTON *      PTSUNNY   36  25  64 SE14      30.20S WCI  27
DECORAH *      MOSUNNY   34  23  64 SE16G25   30.01R WCI  23
DUBUQUE        PTSUNNY   34  23  64 SE17      30.11S WCI  23
MONTICELLO *   PTSUNNY   36  25  64 SE17      30.09R WCI  25
OELWEIN *      MOSUNNY  N/A N/A N/A SE22G33   30.02S
WATERLOO       CLOUDY    38  24  57 SE21      29.98S WCI  28
$$

IAZ064-065-067-068-078-161400-
   EAST CENTRAL IOWA

CITY           SKY/WX    TMP DP  RH WIND       PRES   REMARKS
DAVENPORT      PTSUNNY   36  24  62 SE16      30.16R WCI  26
IOWA CITY      MOSUNNY   37  26  64 SE14      30.10R WCI  28
MT. PLEASANT * MOSUNNY   39  25  56 SE17      30.10R WCI  30
MUSCATINE *    MOSUNNY   37  27  65 SE9       30.14R WCI  31
QUAD CITIES    PTSUNNY   35  24  64 SE13      30.16R WCI  26
$$

IAZ062-063-075>077-085>089-095>099-161400-
   SOUTHEAST IOWA

CITY           SKY/WX    TMP DP  RH WIND       PRES   REMARKS
BURLINGTON     MOSUNNY   38  25  59 S15G23    30.12R WCI  29
FAIRFIELD *    SUNNY     41  23  48 S21G28    30.06R
FORT MADISON * SUNNY     36  27  69 S14       30.12S WCI  27
KEOKUK *       SUNNY     41  25  52 S13       30.11S
OSKALOOSA *      N/A     39  28  65 SE15      30.02S WCI  31
CENTERVILLE *  SUNNY     45  25  45 S17G26    30.01R
OTTUMWA        SUNNY     40  25  55 S17       30.01R WCI  31
WASHINGTON *   SUNNY     37  27  65 SE13      30.08S WCI  29
$$

ABBREVIATIONS USED IN REMARKS
   TC - TEMPERATURES IN CELSIUS
  WCI - WIND CHILL INDEX
   HX - HEAT INDEX
  VSB - VISIBILITY
$$




USA.gov is the U.S. government's official web portal to all federal, state and local government web resources and services.